COSMOS 374 DEB

Satellite information

Favourite Embed

Satellite Type and Status

DEBRISIN ORBIT

Key statistics

Satellite COSMOS 374 DEB at a glance.

Uptime

19920

Days in orbit

Revolutions

≈ 14.4

Per day

Orbit

LEO

Low Earth Orbit

Inclination

62.4

Latest

Satellite identification and parameters

Extended collection of information and parameters for COSMOS 374 DEB.

Object identification

Identified? True

Debris? True

Object name: COSMOS 374 DEB

International designator: 1970-089DD

Object number (NORAD): 18517

Object ID (CCSDS): 18517

Country: COMMONWEALTH OF INDEPENDENT STATES (CIS)

Current information (Y/N): Y

RCS size: SMALL

Orbital parameters

Period: 99.686 minutes

Inclination: 62.3854 deg

SMA: 7121.711 km

Apoapsis: 1005.815 km

Periapsis: 481.337 km

RAAN: 304.6927 deg

Eccentricy: 0.0368225

Argument of periapsis: 95.6304 deg

Mean anomaly: 268.6866 deg

Mean motion: 14.44528967 rev/day

Mean motion (dot): 0.00029445 rev/day2

B* drag term: 0.0036582 1/REarth

Two-line elements (TLE)

Creation date: May 6, 2025, 3:54 a.m.

Reference frame: TEME

Reference center: EARTH

Epoch: May 5, 2025, 7:14 p.m. UTC

TLE line 0: 0 COSMOS 374 DEB

TLE line 1: 1 18517U 70089DD 25125.80206532 .00029445 00000-0 36582-2 0 9997

TLE line 2: 2 18517 62.3854 304.6927 0368225 95.6304 268.6866 14.44528967814810

Live tracking on map

Real-time ground track for satellite COSMOS 374 DEB.

In-orbit conjunctions

A list of the most updated potential collisions computed for object COSMOS 374 DEB.

Target Orbit TCA Probability of collision Miss distance Type
CZ-6A DEB LEO 2024-10-25 21:12:48 0.0002383916 879.0 (m) DEBRIS
CZ-6A DEB LEO 2024-10-23 05:33:12 0.0002341441 758.0 (m) DEBRIS

Associated space launch

The I2P satellites were the first soviet coorbital ASAT system.

COSMOS 374 DEB was lifted into orbit during the mission ‘Tsiklon-2 | I2P 4’, on board a Tsiklon-2 space rocket.

The launch took place on Oct. 23, 1970, 4:42 a.m. from 90/20.

For more information about the launch, click the button.

Launch to space Tsiklon-2 | I2P 4
Tsiklon-2 | I2P 4

Agency: N/A

Status: Launch Successful

Launch date: Oct. 23, 1970, 4:42 a.m. UTC

Rocket: Tsiklon-2

Launch pad: 90/20

Location: Baikonur Cosmodrome, Republic of Kazakhstan

...

Latest news about this satellite

There are no fresh news available about this satellite. Check back as we update our databases every day.


Newsletter sign-up

Weekly statistics, charts and insights to help you stay on top of the space industry.